QPF
0.00 0.00 0.00 0.00 0.00 0.00 0.00 0.00 0.00 0.00 0.00 0.00 0.00 0.00 0.00 0.00 0.00 0.00 0.00 0.00 0.00 0.00 0.00 0.00 0.00 0.01 0.01 0.02 0.03 0.02 0.02 0.03 0.03 0.04 0.05 0.06 0.07 0.07
0.00 0.00 0.00 0.00 0.00 0.00 0.00 0.00 0.00 0.00 0.00 0.00 0.00 0.00 0.00 0.00 0.00 0.00 0.00 0.00 0.00 0.00 0.00 0.00 0.00 0.00 0.01 0.01 0.02 0.02 0.02 0.02 0.02 0.03 0.03 0.03 0.04 0.05
0.00 0.00 0.00 0.00 0.00 0.00 0.00 0.00 0.00 0.00 0.00 0.00 0.00 0.00 0.00 0.00 0.00 0.00 0.00 0.00 0.00 0.00 0.00 0.00 0.00 0.00 0.00 0.01 0.01 0.01 0.02 0.02 0.02 0.02 0.02 0.02 0.02 0.03
0.00 0.00 0.00 0.00 0.00 0.00 0.00 0.00 0.00 0.00 0.00 0.00 0.00 0.00 0.00 0.00 0.00 0.00 0.00 0.00 0.00 0.00 0.00 0.00 0.00 0.00 0.00 0.00 0.01 0.01 0.01 0.01 0.01 0.02 0.02 0.02 0.02 0.03
0.00 0.00 0.00 0.00 0.00 0.00 0.00 0.00 0.00 0.00 0.00 0.00 0.00 0.00 0.00 0.00 0.00 0.00 0.00 0.00 0.00 0.00 0.00 0.00 0.00 0.00 0.00 0.00 0.00 0.00 0.01 0.01 0.01 0.01 0.02 0.02 0.02 0.02
0.00 0.00 0.00 0.00 0.00 0.00 0.00 0.00 0.00 0.00 0.00 0.00 0.00 0.00 0.00 0.00 0.00 0.00 0.00 0.00 0.00 0.00 0.00 0.00 0.00 0.00 0.00 0.00 0.00 0.00 0.00 0.00 0.01 0.01 0.02 0.03 0.03 0.03
0.00 0.00 0.00 0.00 0.00 0.00 0.00 0.00 0.00 0.00 0.00 0.00 0.00 0.00 0.00 0.00 0.00 0.00 0.00 0.00 0.00 0.00 0.00 0.00 0.00 0.00 0.00 0.00 0.00 0.00 0.00 0.00 0.00 0.01 0.02 0.03 0.03 0.03
0.00 0.00 0.00 0.00 0.00 0.00 0.00 0.00 0.00 0.00 0.00 0.00 0.00 0.00 0.00 0.00 0.00 0.00 0.00 0.00 0.00 0.00 0.00 0.00 0.00 0.00 0.00 0.00 0.00 0.00 0.00 0.00 0.00 0.00 0.01 0.01 0.02 0.03
0.00 0.00 0.00 0.00 0.00 0.00 0.00 0.00 0.00 0.00 0.00 0.00 0.00 0.00 0.00 0.00 0.00 0.00 0.00 0.00 0.00 0.00 0.00 0.00 0.00 0.00 0.00 0.00 0.00 0.00 0.00 0.00 0.00 0.00 0.00 0.00 0.01 0.01
0.00 0.00 0.00 0.00 0.00 0.00 0.00 0.00 0.00 0.00 0.00 0.00 0.00 0.00 0.00 0.00 0.01 0.01 0.01 0.01 0.01 0.00 0.00 0.00 0.00 0.00 0.00 0.00 0.00 0.00 0.00 0.00 0.00 0.00 0.00 0.00 0.00 0.01
0.00 0.00 0.00 0.00 0.00 0.00 0.00 0.00 0.00 0.00 0.00 0.00 0.00 0.00 0.00 0.00 0.00 0.01 0.01 0.01 0.00 0.00 0.01 0.00 0.00 0.00 0.00 0.00 0.00 0.00 0.00 0.00 0.00 0.00 0.00 0.00 0.00 0.01
0.01 0.01 0.01 0.01 0.01 0.01 0.01 0.00 0.01 0.01 0.01 0.01 0.00 0.00 0.00 0.00 0.00 0.00 0.01 0.01 0.01 0.01 0.01 0.01 0.00 0.00 0.00 0.00 0.00 0.00 0.00 0.00 0.00 0.00 0.00 0.00 0.00 0.00
0.01 0.01 0.01 0.02 0.01 0.01 0.01 0.01 0.01 0.01 0.02 0.02 0.02 0.01 0.01 0.00 0.00 0.00 0.00 0.01 0.01 0.01 0.01 0.01 0.01 0.01 0.01 0.00 0.00 0.00 0.00 0.00 0.01 0.00 0.00 0.00 0.00 0.00
0.01 0.01 0.01 0.01 0.01 0.01 0.01 0.01 0.01 0.01 0.01 0.02 0.02 0.01 0.01 0.01 0.01 0.01 0.01 0.01 0.01 0.01 0.01 0.01 0.01 0.01 0.01 0.01 0.00 0.00 0.01 0.01 0.01 0.01 0.01 0.01 0.00 0.00
0.01 0.02 0.02 0.02 0.02 0.02 0.01 0.01 0.01 0.01 0.01 0.02 0.02 0.01 0.01 0.01 0.01 0.02 0.02 0.02 0.02 0.01 0.01 0.01 0.01 0.01 0.01 0.01 0.00 0.00 0.01 0.01 0.01 0.01 0.01 0.01 0.01 0.01
0.02 0.02 0.02 0.02 0.02 0.02 0.02 0.02 0.02 0.02 0.02 0.02 0.02 0.02 0.02 0.03 0.02 0.02 0.02 0.02 0.02 0.01 0.01 0.01 0.01 0.01 0.01 0.01 0.01 0.01 0.01 0.01 0.01 0.02 0.02 0.02 0.02 0.02
0.02 0.02 0.02 0.02 0.02 0.02 0.03 0.03 0.04 0.04 0.04 0.04 0.04 0.04 0.04 0.04 0.03 0.03 0.03 0.02 0.02 0.01 0.01 0.01 0.01 0.02 0.01 0.02 0.02 0.01 0.01 0.01 0.01 0.02 0.03 0.02 0.01 0.02
0.02 0.02 0.02 0.02 0.03 0.04 0.05 0.06 0.06 0.07 0.07 0.07 0.07 0.06 0.06 0.06 0.06 0.05 0.04 0.03 0.02 0.01 0.01 0.01 0.03 0.04 0.03 0.01 0.01 0.01 0.01 0.01 0.02 0.03 0.03 0.02 0.01 0.01
0.01 0.02 0.02 0.03 0.04 0.05 0.07 0.08 0.09 0.09 0.10 0.10 0.09 0.08 0.07 0.07 0.07 0.06 0.05 0.04 0.03 0.02 0.02 0.02 0.04 0.04 0.03 0.01 0.01 0.00 0.01 0.01 0.02 0.02 0.03 0.02 0.01 0.01
0.02 0.03 0.04 0.04 0.05 0.07 0.08 0.09 0.10 0.11 0.11 0.11 0.10 0.09 0.09 0.08 0.07 0.06 0.06 0.05 0.04 0.03 0.02 0.02 0.03 0.03 0.03 0.03 0.03 0.03 0.01 0.01 0.02 0.03 0.02 0.02 0.02 0.01
0.03 0.05 0.06 0.07 0.09 0.09 0.09 0.10 0.10 0.11 0.13 0.13 0.12 0.10 0.08 0.07 0.07 0.07 0.06 0.06 0.05 0.05 0.04 0.03 0.03 0.02 0.04 0.06 0.04 0.02 0.03 0.02 0.01 0.04 0.05 0.05 0.04 0.04
0.05 0.06 0.09 0.11 0.13 0.16 0.16 0.14 0.12 0.11 0.12 0.13 0.13 0.12 0.11 0.10 0.08 0.07 0.07 0.08 0.07 0.06 0.04 0.05 0.08 0.09 0.06 0.05 0.03 0.02 0.03 0.05 0.04 0.01 0.02 0.04 0.06 0.05
0.07 0.08 0.09 0.11 0.13 0.14 0.15 0.16 0.17 0.17 0.16 0.16 0.15 0.13 0.13 0.11 0.09 0.08 0.08 0.09 0.09 0.08 0.08 0.08 0.09 0.09 0.07 0.06 0.05 0.05 0.05 0.07 0.10 0.08 0.04 0.01 0.01 0.02
MSLP
1020.00 1020.02 1020.04 1020.05 1020.04 1020.00 1019.92 1019.80 1019.64 1019.46 1019.26 1019.06 1018.87 1018.71 1018.59 1018.50 1018.44 1018.41 1018.40 1018.41 1018.42 1018.44 1018.47 1018.51 1018.57 1018.63 1018.72 1018.81 1018.91 1019.01 1019.11 1019.19 1019.27 1019.35 1019.43 1019.53 1019.66 1019.82
1019.77 1019.81 1019.84 1019.85 1019.85 1019.81 1019.75 1019.65 1019.52 1019.36 1019.18 1019.00 1018.82 1018.65 1018.50 1018.38 1018.28 1018.20 1018.15 1018.11 1018.10 1018.12 1018.15 1018.21 1018.29 1018.39 1018.50 1018.61 1018.72 1018.80 1018.86 1018.90 1018.91 1018.91 1018.91 1018.92 1018.97 1019.05
1019.41 1019.47 1019.51 1019.54 1019.55 1019.53 1019.48 1019.40 1019.30 1019.17 1019.02 1018.86 1018.69 1018.52 1018.35 1018.19 1018.04 1017.92 1017.81 1017.73 1017.69 1017.68 1017.71 1017.78 1017.88 1018.01 1018.16 1018.30 1018.42 1018.51 1018.57 1018.58 1018.56 1018.51 1018.45 1018.39 1018.36 1018.37
1018.94 1019.01 1019.07 1019.11 1019.13 1019.14 1019.11 1019.06 1018.99 1018.90 1018.78 1018.64 1018.49 1018.32 1018.14 1017.96 1017.77 1017.59 1017.42 1017.29 1017.20 1017.15 1017.16 1017.22 1017.33 1017.48 1017.64 1017.81 1017.95 1018.07 1018.14 1018.16 1018.14 1018.07 1017.99 1017.90 1017.82 1017.78
1018.35 1018.44 1018.51 1018.57 1018.61 1018.64 1018.64 1018.63 1018.59 1018.54 1018.46 1018.36 1018.24 1018.08 1017.90 1017.69 1017.47 1017.24 1017.02 1016.83 1016.68 1016.58 1016.55 1016.58 1016.66 1016.80 1016.96 1017.14 1017.30 1017.44 1017.54 1017.59 1017.59 1017.55 1017.48 1017.39 1017.31 1017.24
1017.66 1017.76 1017.85 1017.93 1017.99 1018.04 1018.08 1018.10 1018.11 1018.10 1018.07 1018.01 1017.91 1017.78 1017.61 1017.40 1017.15 1016.89 1016.63 1016.38 1016.17 1016.02 1015.92 1015.90 1015.94 1016.03 1016.17 1016.33 1016.49 1016.64 1016.76 1016.85 1016.90 1016.91 1016.89 1016.84 1016.79 1016.74
1016.91 1017.03 1017.13 1017.22 1017.30 1017.37 1017.43 1017.49 1017.54 1017.58 1017.59 1017.58 1017.52 1017.42 1017.27 1017.07 1016.82 1016.54 1016.25 1015.96 1015.70 1015.48 1015.33 1015.23 1015.21 1015.24 1015.32 1015.44 1015.58 1015.72 1015.86 1015.98 1016.08 1016.16 1016.21 1016.23 1016.24 1016.24
1016.16 1016.27 1016.38 1016.47 1016.57 1016.66 1016.74 1016.83 1016.91 1016.98 1017.04 1017.06 1017.05 1016.98 1016.85 1016.67 1016.44 1016.16 1015.86 1015.55 1015.26 1015.00 1014.79 1014.63 1014.54 1014.50 1014.51 1014.57 1014.67 1014.79 1014.92 1015.06 1015.20 1015.34 1015.46 1015.56 1015.65 1015.71
1015.45 1015.56 1015.66 1015.75 1015.85 1015.94 1016.04 1016.14 1016.24 1016.33 1016.41 1016.46 1016.47 1016.43 1016.34 1016.18 1015.97 1015.71 1015.42 1015.12 1014.82 1014.54 1014.30 1014.10 1013.95 1013.84 1013.79 1013.79 1013.83 1013.90 1014.01 1014.15 1014.31 1014.49 1014.66 1014.83 1014.99 1015.11
1014.85 1014.94 1015.02 1015.10 1015.17 1015.26 1015.34 1015.44 1015.53 1015.63 1015.71 1015.76 1015.78 1015.76 1015.68 1015.54 1015.36 1015.13 1014.87 1014.60 1014.32 1014.06 1013.82 1013.61 1013.43 1013.29 1013.19 1013.13 1013.11 1013.13 1013.20 1013.31 1013.46 1013.65 1013.85 1014.05 1014.25 1014.42
1014.39 1014.43 1014.48 1014.52 1014.56 1014.61 1014.66 1014.73 1014.79 1014.86 1014.91 1014.95 1014.96 1014.92 1014.85 1014.73 1014.57 1014.38 1014.17 1013.94 1013.72 1013.50 1013.30 1013.11 1012.94 1012.80 1012.67 1012.58 1012.51 1012.48 1012.50 1012.56 1012.67 1012.83 1013.01 1013.21 1013.42 1013.61
1014.05 1014.04 1014.03 1014.01 1013.99 1013.98 1013.97 1013.97 1013.99 1014.00 1014.01 1014.01 1013.98 1013.93 1013.85 1013.73 1013.60 1013.44 1013.28 1013.11 1012.96 1012.81 1012.67 1012.54 1012.42 1012.30 1012.18 1012.08 1011.98 1011.91 1011.87 1011.87 1011.92 1012.01 1012.14 1012.30 1012.47 1012.64
1013.79 1013.71 1013.61 1013.50 1013.39 1013.29 1013.21 1013.13 1013.07 1013.02 1012.97 1012.92 1012.85 1012.77 1012.67 1012.56 1012.44 1012.31 1012.20 1012.10 1012.02 1011.95 1011.90 1011.85 1011.80 1011.73 1011.65 1011.55 1011.45 1011.35 1011.26 1011.19 1011.16 1011.17 1011.23 1011.31 1011.42 1011.54
1013.54 1013.35 1013.14 1012.92 1012.70 1012.49 1012.30 1012.14 1012.00 1011.88 1011.77 1011.67 1011.56 1011.46 1011.35 1011.24 1011.13 1011.04 1010.97 1010.93 1010.92 1010.94 1010.97 1011.00 1011.03 1011.03 1011.00 1010.94 1010.84 1010.72 1010.59 1010.47 1010.37 1010.29 1010.25 1010.25 1010.28 1010.34
1013.20 1012.89 1012.55 1012.19 1011.84 1011.50 1011.20 1010.94 1010.72 1010.54 1010.39 1010.26 1010.14 1010.02 1009.92 1009.82 1009.74 1009.68 1009.65 1009.67 1009.72 1009.80 1009.91 1010.02 1010.11 1010.18 1010.21 1010.18 1010.11 1009.99 1009.84 1009.67 1009.50 1009.35 1009.22 1009.14 1009.09 1009.08
1012.72 1012.26 1011.77 1011.26 1010.77 1010.30 1009.89 1009.54 1009.26 1009.03 1008.86 1008.72 1008.61 1008.52 1008.44 1008.37 1008.33 1008.31 1008.32 1008.38 1008.47 1008.60 1008.76 1008.92 1009.08 1009.20 1009.27 1009.29 1009.24 1009.14 1008.98 1008.79 1008.58 1008.37 1008.19 1008.03 1007.92 1007.86
1012.04 1011.44 1010.79 1010.13 1009.50 1008.91 1008.40 1007.98 1007.65 1007.40 1007.23 1007.12 1007.05 1007.01 1006.98 1006.97 1006.98 1007.00 1007.05 1007.14 1007.26 1007.42 1007.60 1007.79 1007.98 1008.13 1008.24 1008.30 1008.28 1008.19 1008.05 1007.86 1007.64 1007.41 1007.19 1007.00 1006.85 1006.76
1011.21 1010.46 1009.68 1008.88 1008.12 1007.43 1006.84 1006.37 1006.01 1005.77 1005.62 1005.56 1005.55 1005.58 1005.63 1005.69 1005.75 1005.82 1005.91 1006.02 1006.15 1006.31 1006.49 1006.69 1006.88 1007.05 1007.18 1007.26 1007.28 1007.22 1007.11 1006.94 1006.73 1006.51 1006.29 1006.09 1005.93 1005.83
1010.28 1009.43 1008.53 1007.63 1006.77 1006.01 1005.36 1004.85 1004.49 1004.26 1004.16 1004.15 1004.21 1004.31 1004.44 1004.57 1004.69 1004.80 1004.91 1005.03 1005.16 1005.31 1005.48 1005.66 1005.84 1006.01 1006.15 1006.25 1006.30 1006.28 1006.20 1006.07 1005.90 1005.71 1005.51 1005.33 1005.18 1005.08
1009.37 1008.44 1007.47 1006.51 1005.60 1004.79 1004.11 1003.59 1003.22 1003.02 1002.94 1002.98 1003.10 1003.27 1003.45 1003.63 1003.80 1003.94 1004.07 1004.19 1004.31 1004.44 1004.58 1004.74 1004.90 1005.06 1005.21 1005.32 1005.39 1005.41 1005.38 1005.29 1005.16 1005.01 1004.84 1004.69 1004.56 1004.48
1008.56 1007.61 1006.62 1005.65 1004.72 1003.91 1003.22 1002.69 1002.33 1002.13 1002.07 1002.13 1002.28 1002.47 1002.68 1002.89 1003.07 1003.22 1003.35 1003.46 1003.56 1003.67 1003.78 1003.91 1004.06 1004.21 1004.36 1004.48 1004.58 1004.63 1004.63 1004.59 1004.50 1004.38 1004.25 1004.11 1004.00 1003.93
1007.92 1007.00 1006.04 1005.10 1004.21 1003.41 1002.74 1002.22 1001.85 1001.65 1001.58 1001.62 1001.75 1001.93 1002.12 1002.31 1002.48 1002.62 1002.72 1002.81 1002.89 1002.97 1003.06 1003.17 1003.30 1003.45 1003.60 1003.73 1003.85 1003.93 1003.96 1003.94 1003.88 1003.78 1003.65 1003.53 1003.42 1003.34
1007.46 1006.61 1005.73 1004.86 1004.03 1003.28 1002.64 1002.13 1001.76 1001.52 1001.41 1001.40 1001.47 1001.59 1001.73 1001.87 1001.98 1002.08 1002.15 1002.20 1002.25 1002.31 1002.38 1002.48 1002.61 1002.75 1002.90 1003.05 1003.17 1003.26 1003.30 1003.29 1003.23 1003.13 1003.00 1002.86 1002.73 1002.63
Thickness
5692 5689 5688 5691 5687 5687 5685 5682 5679 5678 5682 5685 5682 5683 5679 5677 5675 5674 5675 5675 5675 5676 5677 5678 5679 5680 5681 5683 5684 5685 5687 5688 5689 5690 5692 5693 5695 5697
5687 5685 5683 5686 5685 5683 5681 5679 5677 5673 5672 5679 5677 5678 5674 5671 5671 5669 5670 5669 5669 5670 5671 5671 5673 5674 5675 5677 5678 5680 5681 5683 5684 5686 5688 5689 5691 5693
5685 5683 5680 5678 5679 5679 5677 5675 5673 5670 5666 5670 5672 5672 5666 5664 5665 5665 5665 5666 5668 5667 5666 5666 5666 5667 5669 5670 5672 5674 5675 5677 5679 5680 5682 5685 5687 5689
5682 5680 5678 5677 5674 5672 5672 5671 5669 5667 5663 5661 5663 5664 5663 5661 5659 5659 5661 5664 5664 5664 5662 5661 5661 5662 5663 5664 5665 5667 5669 5671 5673 5675 5677 5679 5681 5684
5681 5678 5676 5673 5670 5670 5667 5666 5665 5664 5661 5658 5658 5659 5658 5658 5656 5656 5657 5657 5658 5660 5658 5657 5656 5656 5657 5658 5659 5660 5662 5664 5666 5668 5670 5673 5676 5679
5679 5676 5674 5671 5668 5665 5663 5661 5659 5657 5656 5654 5654 5655 5654 5654 5651 5650 5652 5655 5654 5655 5655 5654 5652 5651 5652 5652 5653 5654 5656 5657 5659 5662 5664 5667 5670 5673
5675 5673 5672 5669 5666 5662 5661 5659 5656 5652 5652 5651 5651 5650 5650 5647 5647 5648 5647 5647 5649 5648 5648 5649 5650 5650 5651 5649 5649 5649 5649 5650 5652 5654 5657 5660 5663 5666
5672 5670 5669 5665 5661 5655 5653 5650 5648 5647 5647 5645 5646 5645 5642 5642 5640 5639 5639 5640 5639 5644 5641 5641 5643 5644 5645 5645 5646 5645 5643 5643 5644 5646 5649 5652 5655 5659
5668 5666 5665 5667 5660 5656 5651 5644 5641 5638 5636 5637 5639 5639 5638 5635 5632 5632 5630 5630 5631 5633 5632 5632 5635 5636 5638 5640 5639 5637 5636 5637 5638 5640 5642 5644 5647 5651
5662 5660 5658 5657 5656 5652 5648 5646 5643 5641 5635 5630 5631 5633 5631 5628 5625 5623 5622 5622 5623 5623 5622 5622 5626 5628 5632 5633 5633 5631 5630 5631 5632 5633 5635 5637 5640 5642
5655 5654 5652 5651 5648 5642 5638 5638 5638 5638 5635 5631 5629 5627 5623 5619 5616 5614 5615 5615 5617 5620 5621 5618 5619 5620 5623 5626 5627 5626 5625 5625 5626 5627 5629 5631 5632 5634
5646 5646 5643 5641 5639 5633 5630 5629 5629 5631 5629 5628 5623 5619 5616 5613 5608 5605 5607 5609 5611 5613 5616 5612 5611 5611 5613 5618 5621 5622 5621 5620 5621 5622 5623 5624 5625 5627
5634 5635 5636 5632 5626 5622 5618 5619 5621 5620 5619 5618 5618 5617 5615 5613 5610 5606 5603 5603 5605 5608 5609 5605 5603 5603 5603 5607 5610 5613 5614 5617 5617 5619 5618 5619 5620 5621
5616 5619 5620 5616 5612 5608 5606 5608 5606 5602 5605 5607 5609 5611 5612 5612 5610 5607 5603 5600 5599 5600 5599 5597 5595 5594 5593 5596 5600 5604 5607 5609 5610 5613 5616 5617 5614 5616
5598 5599 5598 5595 5593 5594 5594 5593 5590 5590 5593 5596 5600 5604 5606 5607 5604 5601 5597 5594 5591 5591 5590 5587 5586 5586 5586 5587 5591 5594 5597 5601 5603 5605 5608 5611 5614 5615
5580 5581 5579 5578 5578 5579 5582 5582 5581 5584 5585 5588 5592 5596 5597 5596 5594 5593 5590 5588 5586 5587 5585 5582 5579 5578 5578 5581 5583 5586 5589 5592 5596 5598 5601 5604 5609 5612
5552 5556 5561 5566 5569 5571 5573 5574 5574 5574 5574 5576 5579 5582 5584 5585 5585 5585 5582 5581 5580 5581 5581 5581 5578 5574 5573 5574 5577 5580 5582 5585 5588 5590 5590 5595 5601 5606
5528 5540 5546 5550 5552 5556 5558 5560 5561 5563 5565 5566 5568 5571 5572 5574 5574 5574 5574 5573 5574 5575 5576 5576 5574 5570 5568 5570 5569 5571 5575 5579 5583 5585 5585 5588 5594 5601
5516 5525 5530 5533 5535 5538 5541 5544 5548 5551 5552 5554 5556 5559 5561 5562 5563 5565 5565 5565 5566 5568 5569 5569 5568 5565 5563 5567 5572 5567 5570 5575 5577 5579 5582 5584 5588 5594
5510 5511 5513 5515 5517 5520 5524 5528 5531 5535 5538 5541 5544 5547 5550 5552 5554 5556 5558 5559 5559 5560 5561 5563 5563 5562 5562 5565 5568 5571 5566 5569 5571 5573 5577 5580 5584 5588
5495 5495 5496 5498 5501 5505 5508 5511 5515 5520 5525 5529 5533 5537 5540 5542 5545 5549 5551 5551 5550 5552 5554 5557 5559 5558 5557 5556 5557 5563 5566 5563 5565 5566 5568 5571 5575 5579
5478 5480 5481 5484 5487 5491 5495 5498 5503 5507 5511 5516 5522 5527 5530 5534 5538 5541 5543 5544 5545 5547 5550 5553 5553 5550 5549 5550 5553 5558 5560 5562 5560 5557 5558 5561 5566 5571
5464 5467 5470 5474 5478 5482 5486 5489 5492 5497 5502 5507 5513 5518 5522 5527 5531 5534 5536 5537 5539 5541 5543 5544 5545 5544 5545 5546 5548 5551 5554 5556 5556 5556 5557 5558 5556 5558